Regional Weather Roundup
Issued by NWS

Home | Current Version | Previous Version | Text Only | Print | Product List | Glossary On
Versions: 1 2 3 4 5 6 7 8 9 10 11 12 13 14 15 16 17 18 19 20 21 22 23 24 25 26 27 28 29 30 31 32 33 34 35 36 37 38 39 40 41 42 43 44 45 46 47 48 49 50
686
ASHW40 PHFO 222132
RWRHI

WEATHER ROUNDUP FOR HAWAII
NATIONAL WEATHER SERVICE HONOLULU HI
1100 AM HST MON MAY 22 2017

THIS IS AN AUTOMATED REPORT THAT HAS NOT BEEN QUALITY CONTROLLED.

NOTE..."FAIR" INDICATES FEW OR NO CLOUDS BELOW 12,000 FEET WITH NO
SIGNIFICANT WEATHER AND/OR OBSTRUCTIONS TO VISIBILITY.

* - THESE SITES REPORT LIMITED FIELDS

HIZ001>004-222200-
KAUAI-NIIHAU-

CITY           SKY/WX    TMP DP  RH WIND       PRES   REMARKS
LIHUE APT      MOSUNNY   82  66  58 NE14      30.11S
PORT ALLEN*      N/A     82 N/A N/A E17G26      N/A
POIPU*           N/A     82 N/A N/A NE9G18      N/A
PRINCEVILLE*     N/A     79 N/A N/A E12G18      N/A
KOKOLE POINT*  NOT AVBL
MOLOAA DAIRY*    N/A     81  66  61 E8G17       N/A
WAIMEA HTS*    NOT AVBL
PUU OPAE*      NOT AVBL
PUU LUA*       NOT AVBL
MAKAHA RIDGE*    N/A     75  64  69 SW3G9       N/A
$$

HIZ005>011-222200-
OAHU-

CITY           SKY/WX    TMP DP  RH WIND       PRES   REMARKS
HONOLULU       MOSUNNY   83  61  47 NE14G23   30.06F
KALAELOA       MOSUNNY   86  61  42 E8G16     30.07F
KANEOHE MCB    NOT AVBL
WHEELER FIELD  FAIR      79  63  57 NE12      30.08S
BELLOWS*         N/A    N/A N/A N/A NE20        N/A
KAHUKU*          N/A    N/A N/A N/A NE10G22     N/A
WHEELER*       NOT AVBL
WAIANAE HARBOR NOT AVBL
DILLINGHAM*      N/A     84  64  51 SW10G17     N/A
KAHUKU TRN*      N/A     81  66  61 W12G26      N/A
KAWAILOA*        N/A     73  64  73 E12G21      N/A
KII*             N/A     81  66  61 E16G23      N/A
MAKUA RANGE*     N/A     72  48  43 W8G20       N/A
OAHU FOREST NW NOT AVBL
SCHOFIELD BRK*   N/A     64  52  63 MISG        N/A
SCHOFIELD S*   NOT AVBL
WAIANAE VLY*   NOT AVBL
KUAOKALA*      NOT AVBL
HONOULIUULI*   NOT AVBL
MOKUOLOE IS*   NOT AVBL
PALEHUA*       NOT AVBL
WAIAWA PHB*    NOT AVBL
$$

HIZ012>013-222200-
MOLOKAI-

CITY           SKY/WX    TMP DP  RH WIND       PRES   REMARKS
MOLOKAI AIRPT  MOSUNNY   80  67  64 NE16G28   30.07F
KALAUPAPA      NOT AVBL
MAKAPULAPAI*     N/A     81  70  69 E18G25      N/A
MOLOKAI 1*     NOT AVBL
PUU ALII*        N/A     65  58  79 VRB3G12     N/A
$$

HIZ016-222200-
KAHOOLAWE-

CITY           SKY/WX    TMP DP  RH WIND       PRES   REMARKS
KAHOOLAWE*     NOT AVBL
HAKIOAWA*        N/A     75  66  74 MISG      30.47F
HONOKANAIA*      N/A     81  65  57 NE17G26   29.99
KANELOA*         N/A     77  64  65 E21G35    30.12S
KEALIALALO*    NOT AVBL
LUA MAKIKA*    NOT AVBL
$$

HIZ014>015-222200-
LANAI-

CITY           SKY/WX    TMP DP  RH WIND       PRES   REMARKS
LANAI CITY     FAIR      77  64  64 NE18G25   30.10S
LANAI 1*       NOT AVBL
$$

HIZ017>028-222200-
MAUI-

CITY           SKY/WX    TMP DP  RH WIND       PRES   REMARKS
KAHULUI        MOSUNNY   83  65  54 NE22G29   30.06S
KAPALUA-W MAUI MOSUNNY   81  64  57 NE17      30.07
HANA AIRPORT   PTSUNNY   82  68  61 NE13      30.11F
HANA*            N/A     81 N/A N/A NE9         N/A
HALEAKALA SUMM   N/A     57  16  19 E13G30      N/A
MAALAEA BAY*     N/A     84 N/A N/A NE18G29     N/A
HALEAKALA*     NOT AVBL
KAUPO GAP*     NOT AVBL
KULA 1*          N/A     58  54  87 W3G12       N/A
$$

HIZ023>026-222200-
BIG ISLAND OF HAWAII COAST AND LOWER SLOPES-

CITY           SKY/WX    TMP DP  RH WIND       PRES   REMARKS
KAILUA KONA    MOSUNNY   85  65  51 NW18      30.00S
HILO           LGT RAIN  71  69  93 NW8       30.08S FOG
HONOKAA*         N/A     72 N/A N/A VRB1        N/A
KAWAIHAE MWT*    N/A     82 N/A N/A W6G14       N/A
KAWAIHAE*        N/A     79 N/A N/A W12       29.99S
SOUTH POINT*     N/A     70 N/A N/A VRB14G22    N/A
UPOLU AIRPORT* NOT AVBL
KAMUELA*       NOT AVBL
HAKALAU*         N/A     57  55  94 NE6G12      N/A
KALOKO-HONOKO* NOT AVBL
PALI 2*          N/A     72  61  68 SW20G32     N/A
KEALAKOMO*       N/A     79  66  65 NE18G28     N/A
KAUPULEHU*     NOT AVBL
KAPAPALA*        N/A     72  67  84 E3G10       N/A
LOWER KAHUKU*    N/A     63  63 100 N2G8        N/A
PUHE CS*         N/A     82  59  44 NE14G31     N/A
PUHO CS*         N/A     84  65  52 S5G10       N/A
PTA KEAMUKU*     N/A     70  57  64 CALM        N/A
WAIKOLOA*      NOT AVBL
$$

HIZ027>028-222200-
BIG ISLAND OF HAWAII INTERIOR AND SUMMMITS-

CITY           SKY/WX    TMP DP  RH WIND       PRES   REMARKS
BRADSHAW FIELD CLOUDY    70  50  49 W10       30.32S
MK VISITOR CEN   N/A     52  46  82 S13         N/A
MAUNA KEA*       N/A     48   3  15 NE20        N/A
MAUNA LOA*       N/A     59  14  17 MISG        N/A
MAUNA LOA 1*   NOT AVBL
PTA KIPUKA*      N/A     46  34  61 NW3G13      N/A
PTA RANGE 17*    N/A     48  34  57 W8G16       N/A
PTA WEST*        N/A     70  52  52 W7G16       N/A
NENE CABIN*      N/A     52  52 100 E5G12       N/A
AHUMOA*        NOT AVBL
PTA PORTABLE*  NOT AVBL
PUU MALI*        N/A     55  54  94 E30G44      N/A
$$

HIC003-222200-
NORTHWEST ISLANDS-

CITY           SKY/WX    TMP DP  RH WIND       PRES   REMARKS
MIDWAY ISLAND  NOT AVBL
MIDWAY NOS*      N/A     70 N/A N/A MISG      30.32F
FRENCH FRIGATE NOT AVBL
$$

PHZ110>124-180-222200-
BUOY REPORTS

STATION/POSITION TIME  TEMP    WIND        PRES    WAVE   SWELL
                       AIR SEA DIR/SP/G            HT/PER HT/DIR
                 (UTC) (F)     (DEG/KT/KT) (MB)    (FT/S) (FT/D)
BUOY 51001       2110   73 77   40/ 21/ 27 1021.5
BUOY 51101       2050   74 77   30/ 23/ 27 1021.5S   9/ 8   5/340
BUOY 51100       NOT AVBL
BUOY 51002       2110   78 78   60/ 16/ 19 1015.5
BUOY 51003       2050   78 80   40/ 17/ 19 1016.5F   7/13   5/340
BUOY 51004       2050      78   60/ 16/ 19 1016.0F   7/ 8   3/ 70
BARBERS PT BUOY  NOT AVBL
WAIMEA BAY BUOY  2102      78                N/A     6/12   5/320
KAILUA BAY BUOY  2104      79                N/A     5/13   3/340
LANAI BUOY       NOT AVBL
BARBERS PT 2     NOT AVBL
PAUWELA MAUI     2109      78                N/A     6/13   3/320
HILO             2012      78                N/A     6/14   3/350
KANEOHE BAY BUOY 2055      79                N/A     6/12   3/340
HANALEI KAUAI    2052      79                N/A     6/13   3/310
KAHULUI HARBOR   2100   77 79   60/ 16/ 21 1018.3
HONOLULU HARBOR  2100   80 79   20/  5/ 16 1018.8
KILO NALU        NOT AVBL
HILO HARBOR      2100   71 77  310/  8/  9 1018.4
MOKUOLOE         2036   78 80   70/ 14/ 18 1018.8F
NAWILIWILI       2100   78      60/ 13/ 16 1019.1
WHOTS BUOY       NOT AVBL
BUOY 51028       NOT AVBL
$$

......................KEY........................................
  SKY/WX - SKY CONDITIONS/PRESENT WEATHER
  TMP    - TEMPERATURE IN FAHRENHEIT
  DWPT   - DEWPOINT IN FAHRENHEIT
  RH     - RELATIVE HUMIDITY IN PERCENT
  WIND   - DIRECTION AND SPEED /MPH FOR ISLANDS...KTS FOR BUOYS/
  PRES   - MEAN SEA LEVEL PRESSURE IN INCHES OF HG
  VSB    - VISIBILITY IN MILES
  HX     - HEAT INDEX
  WCI    - WIND CHILL INDEX
  VRB    - VARIABLE WIND DIRECTION
  N/A    - NOT AVAILABLE




USA.gov is the U.S. government's official web portal to all federal, state and local government web resources and services.